![]() |
EMODnet Physics ERDDAP
Easier access to scientific data |
log in|
Brought to you by EMODnet Physics |
| Dataset Title: | NDBC - Collection of dew point temperature (DEWT) TimeSeries - IN SITU MultiPointTimeSeriesObservation
|
| Institution: | NDBC (Dataset ID: TS_DEWT_NDBC) |
| Information: | Summary
| License
| FGDC
| ISO 19115
| Metadata
| Background
| Subset
| Data Access Form
| Make a graph
|
| Name | Last modified | Size | Description | |
|---|---|---|---|---|
| Parent Directory | - | - | ||
| PCLM4_TS_DEWT_012007.nc | 10-Oct-2024 19:54 | 607809 | ||
| PCLM4_TS_DEWT_012008.nc | 10-Oct-2024 20:33 | 993871 | ||
| PCLM4_TS_DEWT_012009.nc | 10-Oct-2024 21:15 | 994310 | ||
| PCLM4_TS_DEWT_012010.nc | 10-Oct-2024 21:57 | 994016 | ||
| PCLM4_TS_DEWT_012011.nc | 10-Oct-2024 22:34 | 994738 | ||
| PCLM4_TS_DEWT_012012.nc | 10-Oct-2024 23:19 | 994486 | ||
| PCLM4_TS_DEWT_012013.nc | 11-Oct-2024 00:02 | 994022 | ||
| PCLM4_TS_DEWT_012015.nc | 11-Oct-2024 01:14 | 994263 | ||
| PCLM4_TS_DEWT_012016.nc | 11-Oct-2024 01:50 | 907181 | ||
| PCLM4_TS_DEWT_012017.nc | 11-Oct-2024 02:24 | 429675 | ||
| PCLM4_TS_DEWT_012018.nc | 11-Oct-2024 03:07 | 429633 | ||
| PCLM4_TS_DEWT_012019.nc | 11-Oct-2024 03:48 | 428660 | ||
| PCLM4_TS_DEWT_012024.nc | 11-Oct-2024 04:45 | 429153 | ||
| PCLM4_TS_DEWT_022007.nc | 10-Oct-2024 19:57 | 429779 | ||
| PCLM4_TS_DEWT_022008.nc | 10-Oct-2024 20:36 | 430134 | ||
| PCLM4_TS_DEWT_022009.nc | 10-Oct-2024 21:19 | 430328 | ||
| PCLM4_TS_DEWT_022010.nc | 10-Oct-2024 21:59 | 429401 | ||
| PCLM4_TS_DEWT_022011.nc | 10-Oct-2024 22:38 | 605928 | ||
| PCLM4_TS_DEWT_022012.nc | 10-Oct-2024 23:24 | 607798 | ||
| PCLM4_TS_DEWT_022013.nc | 11-Oct-2024 00:04 | 902126 | ||
| PCLM4_TS_DEWT_022015.nc | 11-Oct-2024 01:18 | 1141840 | ||
| PCLM4_TS_DEWT_022016.nc | 11-Oct-2024 01:52 | 1141943 | ||
| PCLM4_TS_DEWT_022017.nc | 11-Oct-2024 02:28 | 1142892 | ||
| PCLM4_TS_DEWT_022018.nc | 11-Oct-2024 03:11 | 1143286 | ||
| PCLM4_TS_DEWT_022019.nc | 11-Oct-2024 03:51 | 1142146 | ||
| PCLM4_TS_DEWT_032007.nc | 10-Oct-2024 20:00 | 1142963 | ||
| PCLM4_TS_DEWT_032008.nc | 10-Oct-2024 20:39 | 1143112 | ||
| PCLM4_TS_DEWT_032009.nc | 10-Oct-2024 21:23 | 993728 | ||
| PCLM4_TS_DEWT_032010.nc | 10-Oct-2024 22:01 | 429189 | ||
| PCLM4_TS_DEWT_032011.nc | 10-Oct-2024 22:42 | 427149 | ||
| PCLM4_TS_DEWT_032012.nc | 10-Oct-2024 23:28 | 428958 | ||
| PCLM4_TS_DEWT_032013.nc | 11-Oct-2024 00:07 | 426074 | ||
| PCLM4_TS_DEWT_032015.nc | 11-Oct-2024 01:22 | 429525 | ||
| PCLM4_TS_DEWT_032016.nc | 11-Oct-2024 01:54 | 429353 | ||
| PCLM4_TS_DEWT_032017.nc | 11-Oct-2024 02:32 | 429983 | ||
| PCLM4_TS_DEWT_032018.nc | 11-Oct-2024 03:15 | 429582 | ||
| PCLM4_TS_DEWT_032019.nc | 11-Oct-2024 03:54 | 604542 | ||
| PCLM4_TS_DEWT_042007.nc | 10-Oct-2024 20:03 | 607487 | ||
| PCLM4_TS_DEWT_042008.nc | 10-Oct-2024 20:43 | 607957 | ||
| PCLM4_TS_DEWT_042009.nc | 10-Oct-2024 21:26 | 994835 | ||
| PCLM4_TS_DEWT_042010.nc | 10-Oct-2024 22:04 | 994552 | ||
| PCLM4_TS_DEWT_042011.nc | 10-Oct-2024 22:46 | 993962 | ||
| PCLM4_TS_DEWT_042012.nc | 10-Oct-2024 23:32 | 994696 | ||
| PCLM4_TS_DEWT_042013.nc | 11-Oct-2024 00:10 | 994494 | ||
| PCLM4_TS_DEWT_042015.nc | 11-Oct-2024 01:26 | 994537 | ||
| PCLM4_TS_DEWT_042016.nc | 11-Oct-2024 01:56 | 994308 | ||
| PCLM4_TS_DEWT_042017.nc | 11-Oct-2024 02:35 | 994230 | ||
| PCLM4_TS_DEWT_042018.nc | 11-Oct-2024 03:19 | 429162 | ||
| PCLM4_TS_DEWT_042019.nc | 11-Oct-2024 03:57 | 428768 | ||
| PCLM4_TS_DEWT_052007.nc | 10-Oct-2024 20:05 | 427959 | ||
| PCLM4_TS_DEWT_052008.nc | 10-Oct-2024 20:47 | 429634 | ||
| PCLM4_TS_DEWT_052009.nc | 10-Oct-2024 21:30 | 429897 | ||
| PCLM4_TS_DEWT_052010.nc | 10-Oct-2024 22:07 | 425997 | ||
| PCLM4_TS_DEWT_052011.nc | 10-Oct-2024 22:50 | 430115 | ||
| PCLM4_TS_DEWT_052012.nc | 10-Oct-2024 23:35 | 430118 | ||
| PCLM4_TS_DEWT_052013.nc | 11-Oct-2024 00:14 | 606779 | ||
| PCLM4_TS_DEWT_052015.nc | 11-Oct-2024 01:30 | 608320 | ||
| PCLM4_TS_DEWT_052016.nc | 11-Oct-2024 01:59 | 901665 | ||
| PCLM4_TS_DEWT_052017.nc | 11-Oct-2024 02:38 | 1143123 | ||
| PCLM4_TS_DEWT_052018.nc | 11-Oct-2024 03:23 | 1143089 | ||
| PCLM4_TS_DEWT_062006.nc | 10-Oct-2024 19:32 | 993186 | ||
| PCLM4_TS_DEWT_062007.nc | 10-Oct-2024 20:08 | 1142911 | ||
| PCLM4_TS_DEWT_062008.nc | 10-Oct-2024 20:51 | 1141926 | ||
| PCLM4_TS_DEWT_062009.nc | 10-Oct-2024 21:33 | 1142813 | ||
| PCLM4_TS_DEWT_062010.nc | 10-Oct-2024 22:10 | 1143153 | ||
| PCLM4_TS_DEWT_062011.nc | 10-Oct-2024 22:53 | 1143077 | ||
| PCLM4_TS_DEWT_062012.nc | 10-Oct-2024 23:38 | 428776 | ||
| PCLM4_TS_DEWT_062013.nc | 11-Oct-2024 00:18 | 427471 | ||
| PCLM4_TS_DEWT_062014.nc | 11-Oct-2024 00:46 | 429006 | ||
| PCLM4_TS_DEWT_062015.nc | 11-Oct-2024 01:33 | 429553 | ||
| PCLM4_TS_DEWT_062016.nc | 11-Oct-2024 02:02 | 430376 | ||
| PCLM4_TS_DEWT_062017.nc | 11-Oct-2024 02:41 | 430086 | ||
| PCLM4_TS_DEWT_062018.nc | 11-Oct-2024 03:27 | 429691 | ||
| PCLM4_TS_DEWT_072006.nc | 10-Oct-2024 19:36 | 605976 | ||
| PCLM4_TS_DEWT_072007.nc | 10-Oct-2024 20:11 | 607295 | ||
| PCLM4_TS_DEWT_072008.nc | 10-Oct-2024 20:54 | 605699 | ||
| PCLM4_TS_DEWT_072009.nc | 10-Oct-2024 21:36 | 1143254 | ||
| PCLM4_TS_DEWT_072010.nc | 10-Oct-2024 22:13 | 993854 | ||
| PCLM4_TS_DEWT_072011.nc | 10-Oct-2024 22:57 | 1142181 | ||
| PCLM4_TS_DEWT_072012.nc | 10-Oct-2024 23:42 | 1143192 | ||
| PCLM4_TS_DEWT_072013.nc | 11-Oct-2024 00:22 | 1143086 | ||
| PCLM4_TS_DEWT_072014.nc | 11-Oct-2024 00:50 | 1142280 | ||
| PCLM4_TS_DEWT_072015.nc | 11-Oct-2024 01:36 | 995083 | ||
| PCLM4_TS_DEWT_072016.nc | 11-Oct-2024 02:05 | 1143061 | ||
| PCLM4_TS_DEWT_072017.nc | 11-Oct-2024 02:45 | 424203 | ||
| PCLM4_TS_DEWT_072018.nc | 11-Oct-2024 03:32 | 429115 | ||
| PCLM4_TS_DEWT_072020.nc | 11-Oct-2024 04:12 | 424502 | ||
| PCLM4_TS_DEWT_072023.nc | 11-Oct-2024 04:23 | 429546 | ||
| PCLM4_TS_DEWT_082006.nc | 10-Oct-2024 19:38 | 429802 | ||
| PCLM4_TS_DEWT_082007.nc | 10-Oct-2024 20:13 | 421980 | ||
| PCLM4_TS_DEWT_082009.nc | 10-Oct-2024 21:39 | 429373 | ||
| PCLM4_TS_DEWT_082010.nc | 10-Oct-2024 22:16 | 605016 | ||
| PCLM4_TS_DEWT_082011.nc | 10-Oct-2024 23:00 | 604030 | ||
| PCLM4_TS_DEWT_082012.nc | 10-Oct-2024 23:46 | 994133 | ||
| PCLM4_TS_DEWT_082013.nc | 11-Oct-2024 00:27 | 994581 | ||
| PCLM4_TS_DEWT_082014.nc | 11-Oct-2024 00:53 | 994693 | ||
| PCLM4_TS_DEWT_082015.nc | 11-Oct-2024 01:39 | 994750 | ||
| PCLM4_TS_DEWT_082016.nc | 11-Oct-2024 02:08 | 994519 | ||
| PCLM4_TS_DEWT_082017.nc | 11-Oct-2024 02:50 | 994775 | ||
| PCLM4_TS_DEWT_082018.nc | 11-Oct-2024 03:35 | 994214 | ||
| PCLM4_TS_DEWT_082019.nc | 11-Oct-2024 04:00 | 994649 | ||
| PCLM4_TS_DEWT_082020.nc | 11-Oct-2024 04:16 | 993756 | ||
| PCLM4_TS_DEWT_082023.nc | 11-Oct-2024 04:27 | 429639 | ||
| PCLM4_TS_DEWT_092006.nc | 10-Oct-2024 19:42 | 429853 | ||
| PCLM4_TS_DEWT_092007.nc | 10-Oct-2024 20:16 | 429610 | ||
| PCLM4_TS_DEWT_092008.nc | 10-Oct-2024 21:01 | 430394 | ||
| PCLM4_TS_DEWT_092009.nc | 10-Oct-2024 21:43 | 425008 | ||
| PCLM4_TS_DEWT_092010.nc | 10-Oct-2024 22:19 | 429228 | ||
| PCLM4_TS_DEWT_092011.nc | 10-Oct-2024 23:04 | 430351 | ||
| PCLM4_TS_DEWT_092012.nc | 10-Oct-2024 23:49 | 606060 | ||
| PCLM4_TS_DEWT_092013.nc | 11-Oct-2024 00:30 | 605990 | ||
| PCLM4_TS_DEWT_092014.nc | 11-Oct-2024 00:57 | 1142855 | ||
| PCLM4_TS_DEWT_092015.nc | 11-Oct-2024 01:42 | 1143048 | ||
| PCLM4_TS_DEWT_092016.nc | 11-Oct-2024 02:11 | 1142757 | ||
| PCLM4_TS_DEWT_092017.nc | 11-Oct-2024 02:54 | 1143119 | ||
| PCLM4_TS_DEWT_092018.nc | 11-Oct-2024 03:38 | 1142692 | ||
| PCLM4_TS_DEWT_092019.nc | 11-Oct-2024 04:04 | 1141853 | ||
| PCLM4_TS_DEWT_092023.nc | 11-Oct-2024 04:31 | 1142557 | ||
| PCLM4_TS_DEWT_102006.nc | 10-Oct-2024 19:45 | 1142178 | ||
| PCLM4_TS_DEWT_102007.nc | 10-Oct-2024 20:20 | 1143076 | ||
| PCLM4_TS_DEWT_102008.nc | 10-Oct-2024 21:04 | 422903 | ||
| PCLM4_TS_DEWT_102009.nc | 10-Oct-2024 21:47 | 429457 | ||
| PCLM4_TS_DEWT_102010.nc | 10-Oct-2024 22:22 | 429449 | ||
| PCLM4_TS_DEWT_102011.nc | 10-Oct-2024 23:08 | 426287 | ||
| PCLM4_TS_DEWT_102012.nc | 10-Oct-2024 23:52 | 429728 | ||
| PCLM4_TS_DEWT_102013.nc | 11-Oct-2024 00:34 | 429722 | ||
| PCLM4_TS_DEWT_102014.nc | 11-Oct-2024 01:02 | 429871 | ||
| PCLM4_TS_DEWT_102015.nc | 11-Oct-2024 01:44 | 600392 | ||
| PCLM4_TS_DEWT_102016.nc | 11-Oct-2024 02:14 | 599811 | ||
| PCLM4_TS_DEWT_102017.nc | 11-Oct-2024 02:57 | 994659 | ||
| PCLM4_TS_DEWT_102018.nc | 11-Oct-2024 03:41 | 917331 | ||
| PCLM4_TS_DEWT_102019.nc | 11-Oct-2024 04:07 | 994227 | ||
| PCLM4_TS_DEWT_102023.nc | 11-Oct-2024 04:36 | 994738 | ||
| PCLM4_TS_DEWT_112006.nc | 10-Oct-2024 19:49 | 994269 | ||
| PCLM4_TS_DEWT_112007.nc | 10-Oct-2024 20:25 | 991624 | ||
| PCLM4_TS_DEWT_112008.nc | 10-Oct-2024 21:07 | 994249 | ||
| PCLM4_TS_DEWT_112009.nc | 10-Oct-2024 21:51 | 994795 | ||
| PCLM4_TS_DEWT_112010.nc | 10-Oct-2024 22:25 | 994479 | ||
| PCLM4_TS_DEWT_112011.nc | 10-Oct-2024 23:12 | 423324 | ||
| PCLM4_TS_DEWT_112012.nc | 10-Oct-2024 23:54 | 429861 | ||
| PCLM4_TS_DEWT_112013.nc | 11-Oct-2024 00:38 | 426977 | ||
| PCLM4_TS_DEWT_112014.nc | 11-Oct-2024 01:06 | 428565 | ||
| PCLM4_TS_DEWT_112015.nc | 11-Oct-2024 01:47 | 428343 | ||
| PCLM4_TS_DEWT_112016.nc | 11-Oct-2024 02:17 | 429686 | ||
| PCLM4_TS_DEWT_112017.nc | 11-Oct-2024 03:01 | 430194 | ||
| PCLM4_TS_DEWT_112018.nc | 11-Oct-2024 03:44 | 595957 | ||
| PCLM4_TS_DEWT_112019.nc | 11-Oct-2024 04:10 | 601426 | ||
| PCLM4_TS_DEWT_112022.nc | 11-Oct-2024 04:20 | 1142002 | ||
| PCLM4_TS_DEWT_112023.nc | 11-Oct-2024 04:39 | 991775 | ||
| PCLM4_TS_DEWT_122006.nc | 10-Oct-2024 19:52 | 991933 | ||
| PCLM4_TS_DEWT_122007.nc | 10-Oct-2024 20:29 | 910396 | ||
| PCLM4_TS_DEWT_122008.nc | 10-Oct-2024 21:10 | 1142908 | ||
| PCLM4_TS_DEWT_122009.nc | 10-Oct-2024 21:54 | 1142834 | ||
| PCLM4_TS_DEWT_122010.nc | 10-Oct-2024 22:30 | 1143019 | ||
| PCLM4_TS_DEWT_122011.nc | 10-Oct-2024 23:16 | 1143151 | ||
| PCLM4_TS_DEWT_122012.nc | 10-Oct-2024 23:58 | 994789 | ||
| PCLM4_TS_DEWT_122013.nc | 11-Oct-2024 00:42 | 1461966 | ||
| PCLM4_TS_DEWT_122014.nc | 11-Oct-2024 01:10 | 1473828 | ||
| PCLM4_TS_DEWT_122015.nc | 11-Oct-2024 01:48 | 1476609 | ||
| PCLM4_TS_DEWT_122016.nc | 11-Oct-2024 02:20 | 1462773 | ||
| PCLM4_TS_DEWT_122017.nc | 11-Oct-2024 03:04 | 1475541 | ||
| PCLM4_TS_DEWT_122018.nc | 11-Oct-2024 03:46 | 1625699 | ||
| PCLM4_TS_DEWT_122023.nc | 11-Oct-2024 04:42 | 1624971 | ||